Hourly Data Report for April 08, 2016

All times are specified in Local Standard Time (LST). Add 1 hour to adjust for Daylight Saving Time where and when it is observed.

EMERSON AUTO
MANITOBA

49°00'00.000" N
97°14'15.000" W
242.00 m
5020881
71560
WEX

Download Data

Hourly Data (April 2016)
Hourly Data Report for April 8, 2016
Temp Definition
°C
Dew Point Temp Definition
°C
Rel Hum Definition
%
Wind Dir Definition
10's deg

Wind Spd Definition
km/h
Visibility Definition
km
Stn Press Definition
kPa
Hmdx Definition


Wind Chill Definition


Weather Definition


TIME
00:00 -3.3 -5.0 88 35 37   99.11   -12 LegendNANA
01:00 -4.5 -8.6 73 35 40   99.12   -13 LegendNANA
02:00 -5.3 -9.3 73 34 35   99.13   -14 LegendNANA
03:00 -6.0 -9.8 74 34 38   99.15   -15 LegendNANA
04:00 -6.9 -9.6 81 33 35   99.22   -16 LegendNANA
05:00 -7.4 -9.9 83 34 37   99.28   -17 LegendNANA
06:00 -7.6 -9.4 87 34 30   99.38   -16 LegendNANA
07:00 -7.6 -9.9 84 34 35   99.45   -17 LegendNANA
08:00 -6.3 -10.0 75 35 32   99.54   -15 LegendNANA
09:00 -6.3 -13.9 55 35 36   99.62   -15 LegendNANA
10:00 -5.6 -12.3 59 36 36   99.68   -14 LegendNANA
11:00 -4.5 -12.2 55 35 33   99.69   -13 LegendNANA
12:00 -4.6 -11.6 58 35 33   99.68   -13 LegendNANA
13:00 -3.5 -10.2 60 35 31   99.70   -11 LegendNANA
14:00 -3.6 -11.2 55 35 30   99.67   -11 LegendNANA
15:00 -3.8 -10.6 59 34 29   99.65   -11 LegendNANA
16:00 -3.1 -10.2 58 36 25   99.65   -10 LegendNANA
17:00 -3.2 -9.6 61 34 27   99.64   -10 LegendNANA
18:00 -3.8 -9.9 62 35 21   99.62   -10 LegendNANA
19:00 -4.6 -10.1 65 36 18   99.57   -11 LegendNANA
20:00 -5.3 -9.8 71 35 12   99.58   -10 LegendNANA
21:00 -6.3 -8.9 82 34 7   99.58   -10 LegendNANA
22:00 -6.8 -9.9 78 35 4   99.50   -9 LegendNANA
23:00 -7.6 -11.0 76 7 3   99.45   -9 LegendNANA

Notes on Data Quality.

Legend

  • E = Estimated
  • M = Missing
  • NA = Not Available
  • ‡ = Partner data that is not subject to review by the National Climate Archives
Date modified: